| time (UTC) | temp C | wind direction | speed KPH | gust KPH | rain 1hr cm | rain 24hr cm | rain mn cm | humidity % | barometer mb |
| 20260901224904 | 23 | 234 | 4.8 | 12.9 | 0.00 | 0.28 | 0.28 | 30 | 1017.4 |
| 20260901224405 | 23 | 253 | 1.6 | 14.5 | 0.00 | 0.28 | 0.28 | 30 | 1017.3 |
| 20260901223904 | 23 | 233 | 6.4 | 14.5 | 0.00 | 0.28 | 0.28 | 30 | 1017.4 |
| 20260901223404 | 23 | 222 | 4.8 | 9.7 | 0.00 | 0.28 | 0.28 | 31 | 1017.4 |
| 20260901222904 | 23 | 231 | 4.8 | 14.5 | 0.00 | 0.28 | 0.28 | 31 | 1017.5 |
| 20260901222404 | 23 | 226 | 1.6 | 8.0 | 0.00 | 0.28 | 0.28 | 33 | 1017.5 |
| 20260901221904 | 23 | 247 | 0.0 | 4.8 | 0.00 | 0.28 | 0.28 | 35 | 1017.5 |
| 20260901220404 | 22 | 190 | 1.6 | 4.8 | 0.00 | 0.28 | 0.28 | 34 | 1017.7 |
| 20260901215904 | 22 | 241 | 0.0 | 4.8 | 0.00 | 0.28 | 0.28 | 35 | 1017.8 |
| 20260901215404 | 22 | 233 | 1.6 | 8.0 | 0.00 | 0.28 | 0.28 | 35 | 1017.9 |
| 20260901214904 | 22 | 223 | 3.2 | 12.9 | 0.00 | 0.28 | 0.28 | 35 | 1017.9 |
| 20260901214404 | 22 | 227 | 3.2 | 8.0 | 0.00 | 0.28 | 0.28 | 36 | 1018.0 |
| 20260901213904 | 22 | 135 | 1.6 | 8.0 | 0.00 | 0.28 | 0.28 | 36 | 1018.0 |
| 20260901213404 | 22 | 191 | 0.0 | 3.2 | 0.00 | 0.28 | 0.28 | 37 | 1018.1 |
| 20260901212404 | 22 | 238 | 0.0 | 0.0 | 0.00 | 0.28 | 0.28 | 39 | 1018.1 |
| 20260901211904 | 22 | 219 | 1.6 | 4.8 | 0.00 | 0.28 | 0.28 | 35 | 1018.4 |
| 20260901211404 | 22 | 238 | 0.0 | 4.8 | 0.00 | 0.28 | 0.28 | 37 | 1018.5 |
| 20260901210904 | 22 | 240 | 0.0 | 0.0 | 0.00 | 0.28 | 0.28 | 36 | 1018.5 |
| 20260901210404 | 22 | 215 | 0.0 | 0.0 | 0.00 | 0.28 | 0.28 | 36 | 1018.5 |
| 20260901205904 | 22 | 215 | 0.0 | 4.8 | 0.00 | 0.28 | 0.28 | 36 | 1018.6 |
| 20260901205404 | 22 | 205 | 1.6 | 4.8 | 0.00 | 0.28 | 0.28 | 37 | 1018.6 |
| 20260901203904 | 22 | 232 | 1.6 | 8.0 | 0.00 | 0.28 | 0.28 | 37 | 1018.8 |
| 20260901202904 | 22 | 212 | 1.6 | 11.3 | 0.00 | 0.28 | 0.28 | 38 | 1018.9 |
| 20260901201904 | 21 | 226 | 1.6 | 8.0 | 0.00 | 0.28 | 0.28 | 38 | 1019.0 |
| 20260901201404 | 21 | 226 | 3.2 | 9.7 | 0.00 | 0.28 | 0.28 | 39 | 1019.1 |
| 20260901200904 | 21 | 252 | 0.0 | 11.3 | 0.00 | 0.28 | 0.28 | 40 | 1019.3 |
| 20260901200404 | 21 | 239 | 0.0 | 0.0 | 0.00 | 0.28 | 0.28 | 40 | 1019.4 |
| 20260901195404 | 21 | 232 | 3.2 | 11.3 | 0.00 | 0.28 | 0.28 | 42 | 1019.5 |
| 20260901194904 | 21 | 230 | 1.6 | 4.8 | 0.00 | 0.28 | 0.28 | 42 | 1019.5 |
| 20260901194404 | 21 | 235 | 3.2 | 12.9 | 0.00 | 0.28 | 0.28 | 43 | 1019.6 |
| 20260901193904 | 20 | 239 | 0.0 | 9.7 | 0.00 | 0.28 | 0.28 | 45 | 1019.7 |
| 20260901193404 | 20 | 227 | 4.8 | 16.1 | 0.00 | 0.28 | 0.28 | 45 | 1019.7 |
| 20260901192904 | 20 | 234 | 3.2 | 8.0 | 0.00 | 0.28 | 0.28 | 45 | 1019.8 |
| 20260901192404 | 20 | 227 | 1.6 | 9.7 | 0.00 | 0.28 | 0.28 | 47 | 1019.8 |
| 20260901191904 | 20 | 232 | 1.6 | 4.8 | 0.00 | 0.28 | 0.28 | 46 | 1019.7 |
| 20260901190904 | 19 | 225 | 0.0 | 0.0 | 0.00 | 0.28 | 0.28 | 48 | 1019.8 |
| 20260901190404 | 18 | 225 | 8.0 | 14.5 | 0.00 | 0.28 | 0.28 | 49 | 1019.8 |
| 20260901185904 | 18 | 51 | 1.6 | 4.8 | 0.00 | 0.28 | 0.28 | 52 | 1019.9 |
| 20260901185404 | 18 | 51 | 0.0 | 0.0 | 0.00 | 0.28 | 0.28 | 55 | 1019.9 |
| 20260901184404 | 17 | 51 | 0.0 | 0.0 | 0.00 | 0.28 | 0.28 | 57 | 1020.0 |
| 20260901183904 | 17 | 51 | 0.0 | 0.0 | 0.00 | 0.28 | 0.28 | 56 | 1020.0 |
| 20260901183404 | 17 | 51 | 1.6 | 4.8 | 0.00 | 0.28 | 0.28 | 59 | 1020.0 |
| 20260901182904 | 17 | 46 | 1.6 | 8.0 | 0.00 | 0.28 | 0.28 | 59 | 1020.0 |
| 20260901182404 | 16 | 47 | 0.0 | 0.0 | 0.00 | 0.28 | 0.28 | 62 | 1020.0 |
| 20260901181904 | 16 | 47 | 0.0 | 4.8 | 0.00 | 0.28 | 0.28 | 61 | 1020.1 |
| 20260901180904 | 16 | 52 | 1.6 | 9.7 | 0.00 | 0.28 | 0.28 | 65 | 1020.1 |
| 20260901180404 | 16 | 56 | 0.0 | 0.0 | 0.00 | 0.28 | 0.28 | 67 | 1020.3 |
| 20260901175904 | 16 | 56 | 1.6 | 3.2 | 0.00 | 0.28 | 0.28 | 68 | 1020.4 |
| 20260901175404 | 15 | 51 | 0.0 | 0.0 | 0.00 | 0.28 | 0.28 | 70 | 1020.4 |
| 20260901174904 | 15 | 51 | 0.0 | 0.0 | 0.00 | 0.28 | 0.28 | 71 | 1020.5 |
| 20260901174404 | 15 | 51 | 0.0 | 0.0 | 0.00 | 0.28 | 0.28 | 75 | 1020.5 |
| 20260901173904 | 15 | 51 | 0.0 | 0.0 | 0.00 | 0.28 | 0.28 | 75 | 1020.6 |
| 20260901173404 | 14 | 51 | 0.0 | 0.0 | 0.00 | 0.28 | 0.28 | 75 | 1020.6 |
| 20260901172904 | 14 | 51 | 0.0 | 0.0 | 0.00 | 0.28 | 0.28 | 76 | 1020.7 |
| 20260901172404 | 14 | 48 | 0.0 | 0.0 | 0.00 | 0.28 | 0.28 | 76 | 1020.7 |
| 20260901171404 | 13 | 35 | 0.0 | 0.0 | 0.00 | 0.28 | 0.28 | 77 | 1020.8 |
| 20260901170904 | 13 | 35 | 0.0 | 0.0 | 0.00 | 0.28 | 0.28 | 77 | 1020.8 |
| 20260901170404 | 13 | 35 | 0.0 | 0.0 | 0.00 | 0.28 | 0.28 | 78 | 1020.8 |
| 20260901165904 | 13 | 35 | 0.0 | 0.0 | 0.00 | 0.28 | 0.28 | 78 | 1020.8 |
| 20260901165404 | 13 | 35 | 0.0 | 0.0 | 0.00 | 0.28 | 0.28 | 78 | 1020.8 |
| 20260901164904 | 13 | 35 | 0.0 | 0.0 | 0.00 | 0.28 | 0.28 | 78 | 1020.8 |
| 20260901164404 | 13 | 35 | 0.0 | 0.0 | 0.00 | 0.28 | 0.28 | 78 | 1020.7 |
| 20260901163904 | 13 | 35 | 0.0 | 0.0 | 0.00 | 0.28 | 0.28 | 79 | 1020.7 |
| 20260901163404 | 13 | 35 | 0.0 | 0.0 | 0.00 | 0.28 | 0.28 | 79 | 1020.7 |
| 20260901162904 | 13 | 35 | 0.0 | 0.0 | 0.00 | 0.28 | 0.28 | 79 | 1020.7 |
| 20260901161404 | 13 | 35 | 0.0 | 0.0 | 0.00 | 0.28 | 0.28 | 79 | 1020.6 |
| 20260901160404 | 13 | 35 | 0.0 | 0.0 | 0.03 | 0.28 | 0.28 | 79 | 1020.6 |
| 20260901155904 | 13 | 35 | 0.0 | 0.0 | 0.05 | 0.28 | 0.28 | 79 | 1020.6 |
| 20260901154904 | 12 | 35 | 0.0 | 0.0 | 0.08 | 0.28 | 0.28 | 79 | 1020.6 |
| 20260901153904 | 12 | 35 | 0.0 | 0.0 | 0.15 | 0.28 | 0.28 | 79 | 1020.6 |
| 20260901153404 | 12 | 35 | 0.0 | 0.0 | 0.15 | 0.28 | 0.28 | 79 | 1020.6 |
| 20260901152904 | 12 | 35 | 0.0 | 0.0 | 0.18 | 0.28 | 0.28 | 79 | 1020.7 |
| 20260901152404 | 12 | 35 | 0.0 | 0.0 | 0.18 | 0.28 | 0.28 | 79 | 1020.6 |
| 20260901151904 | 12 | 35 | 0.0 | 0.0 | 0.18 | 0.28 | 0.28 | 79 | 1020.6 |
| 20260901151404 | 12 | 35 | 0.0 | 0.0 | 0.18 | 0.28 | 0.28 | 78 | 1020.6 |
| 20260901150904 | 12 | 35 | 0.0 | 0.0 | 0.15 | 0.25 | 0.25 | 78 | 1020.6 |
| 20260901150404 | 12 | 35 | 0.0 | 0.0 | 0.15 | 0.25 | 0.25 | 78 | 1020.6 |
| 20260901145904 | 12 | 35 | 0.0 | 0.0 | 0.13 | 0.23 | 0.23 | 78 | 1020.7 |
| 20260901145404 | 12 | 35 | 0.0 | 0.0 | 0.13 | 0.23 | 0.23 | 78 | 1020.6 |
| 20260901144404 | 12 | 35 | 0.0 | 0.0 | 0.05 | 0.15 | 0.15 | 78 | 1020.5 |
| 20260901143905 | 12 | 35 | 0.0 | 0.0 | 0.03 | 0.13 | 0.13 | 78 | 1020.6 |
| 20260901143404 | 12 | 35 | 0.0 | 0.0 | 0.03 | 0.13 | 0.13 | 78 | 1020.5 |
| 20260901142404 | 12 | 35 | 0.0 | 0.0 | 0.00 | 0.10 | 0.10 | 78 | 1020.3 |
| 20260901141904 | 12 | 35 | 0.0 | 0.0 | 0.00 | 0.10 | 0.10 | 78 | 1020.3 |
| 20260901141404 | 12 | 35 | 0.0 | 0.0 | 0.00 | 0.10 | 0.10 | 78 | 1020.3 |
| 20260901140904 | 12 | 35 | 0.0 | 0.0 | 0.00 | 0.10 | 0.10 | 78 | 1020.3 |
| 20260901140404 | 12 | 35 | 0.0 | 0.0 | 0.00 | 0.10 | 0.10 | 78 | 1020.3 |
| 20260901135904 | 12 | 35 | 0.0 | 0.0 | 0.00 | 0.10 | 0.10 | 78 | 1020.3 |
| 20260901135404 | 12 | 35 | 0.0 | 0.0 | 0.03 | 0.10 | 0.10 | 77 | 1020.2 |
| 20260901134404 | 12 | 35 | 0.0 | 0.0 | 0.05 | 0.10 | 0.10 | 77 | 1020.1 |
| 20260901133904 | 12 | 35 | 0.0 | 0.0 | 0.08 | 0.10 | 0.10 | 77 | 1020.1 |
| 20260901133404 | 12 | 35 | 0.0 | 0.0 | 0.08 | 0.10 | 0.10 | 77 | 1020.2 |
| 20260901132904 | 12 | 35 | 0.0 | 0.0 | 0.08 | 0.10 | 0.10 | 77 | 1020.1 |
| 20260901131904 | 12 | 35 | 0.0 | 0.0 | 0.08 | 0.10 | 0.10 | 77 | 1020.1 |
| 20260901130904 | 12 | 35 | 0.0 | 0.0 | 0.08 | 0.10 | 0.10 | 76 | 1020.1 |
| 20260901130404 | 12 | 35 | 0.0 | 0.0 | 0.08 | 0.10 | 0.10 | 76 | 1020.0 |
| 20260901125904 | 12 | 35 | 0.0 | 0.0 | 0.08 | 0.10 | 0.10 | 76 | 1020.1 |
| 20260901124904 | 12 | 35 | 0.0 | 0.0 | 0.05 | 0.08 | 0.08 | 76 | 1019.9 |
| 20260901124404 | 12 | 35 | 0.0 | 0.0 | 0.03 | 0.05 | 0.05 | 76 | 1020.0 |
| 20260901123904 | 12 | 35 | 0.0 | 0.0 | 0.00 | 0.03 | 0.03 | 75 | 1019.9 |
| 20260901123404 | 12 | 35 | 0.0 | 0.0 | 0.00 | 0.03 | 0.03 | 75 | 1019.9 |
| 20260901122404 | 12 | 35 | 0.0 | 0.0 | 0.00 | 0.03 | 0.03 | 75 | 1020.0 |
| 20260901121904 | 12 | 35 | 0.0 | 0.0 | 0.00 | 0.03 | 0.03 | 75 | 1020.0 |
| 20260901120904 | 12 | 35 | 0.0 | 0.0 | 0.00 | 0.03 | 0.03 | 75 | 1019.9 |
| 20260901120404 | 12 | 35 | 0.0 | 0.0 | 0.00 | 0.03 | 0.03 | 75 | 1019.9 |
| 20260901115904 | 12 | 35 | 0.0 | 0.0 | 0.00 | 0.03 | 0.03 | 75 | 1019.9 |
| 20260901115404 | 12 | 35 | 0.0 | 0.0 | 0.00 | 0.03 | 0.03 | 75 | 1019.9 |
| 20260901114904 | 12 | 35 | 0.0 | 0.0 | 0.00 | 0.03 | 0.03 | 75 | 1019.9 |
| 20260901114404 | 12 | 35 | 0.0 | 0.0 | 0.00 | 0.03 | 0.03 | 75 | 1019.9 |
| 20260901113904 | 12 | 35 | 0.0 | 0.0 | 0.00 | 0.03 | 0.03 | 75 | 1019.8 |
| 20260901112904 | 12 | 35 | 0.0 | 0.0 | 0.00 | 0.03 | 0.03 | 75 | 1019.7 |
| 20260901112404 | 12 | 35 | 0.0 | 0.0 | 0.00 | 0.03 | 0.03 | 75 | 1019.6 |
| 20260901111904 | 12 | 35 | 0.0 | 0.0 | 0.00 | 0.03 | 0.03 | 74 | 1019.5 |
| 20260901111404 | 12 | 35 | 0.0 | 0.0 | 0.03 | 0.03 | 0.03 | 74 | 1019.5 |
| 20260901110904 | 12 | 35 | 0.0 | 0.0 | 0.03 | 0.03 | 0.03 | 74 | 1019.7 |
| 20260901110404 | 12 | 35 | 0.0 | 0.0 | 0.03 | 0.03 | 0.03 | 73 | 1019.7 |
| 20260901105904 | 12 | 34 | 0.0 | 0.0 | 0.03 | 0.03 | 0.03 | 73 | 1019.6 |
| 20260901105404 | 12 | 34 | 0.0 | 0.0 | 0.03 | 0.03 | 0.03 | 72 | 1019.4 |
| 20260901104904 | 12 | 34 | 0.0 | 0.0 | 0.03 | 0.03 | 0.03 | 72 | 1019.4 |
| 20260901104404 | 12 | 34 | 0.0 | 0.0 | 0.03 | 0.03 | 0.03 | 72 | 1019.4 |
| 20260901103904 | 12 | 34 | 0.0 | 0.0 | 0.03 | 0.03 | 0.03 | 72 | 1019.4 |
| 20260901102404 | 12 | 34 | 0.0 | 0.0 | 0.03 | 0.03 | 0.03 | 71 | 1019.5 |
| 20260901101904 | 13 | 34 | 0.0 | 0.0 | 0.03 | 0.03 | 0.03 | 71 | 1019.6 |
| 20260901101404 | 13 | 34 | 0.0 | 0.0 | 0.00 | 0.00 | 0.00 | 71 | 1019.5 |
| 20260901100904 | 13 | 34 | 0.0 | 0.0 | 0.00 | 0.00 | 0.00 | 71 | 1019.5 |
| 20260901100404 | 13 | 34 | 0.0 | 0.0 | 0.00 | 0.00 | 0.00 | 70 | 1019.4 |
| 20260901095404 | 13 | 34 | 0.0 | 0.0 | 0.00 | 0.00 | 0.00 | 69 | 1019.7 |
| 20260901094904 | 13 | 34 | 0.0 | 0.0 | 0.00 | 0.00 | 0.00 | 68 | 1019.7 |
| 20260901094404 | 13 | 34 | 0.0 | 0.0 | 0.00 | 0.00 | 0.00 | 68 | 1019.5 |
| 20260901093404 | 13 | 34 | 0.0 | 0.0 | 0.00 | 0.00 | 0.00 | 68 | 1019.5 |
| 20260901092904 | 13 | 34 | 0.0 | 0.0 | 0.00 | 0.00 | 0.00 | 67 | 1019.6 |
| 20260901092404 | 13 | 34 | 0.0 | 0.0 | 0.00 | 0.00 | 0.00 | 66 | 1019.5 |
| 20260901091905 | 13 | 34 | 0.0 | 0.0 | 0.00 | 0.00 | 0.00 | 65 | 1019.5 |
| 20260901091404 | 13 | 34 | 0.0 | 0.0 | 0.00 | 0.00 | 0.00 | 65 | 1019.4 |
| 20260901090904 | 13 | 34 | 0.0 | 0.0 | 0.00 | 0.00 | 0.00 | 65 | 1019.6 |
| 20260901090404 | 13 | 34 | 0.0 | 0.0 | 0.00 | 0.00 | 0.00 | 65 | 1019.7 |
| 20260901085904 | 13 | 34 | 0.0 | 0.0 | 0.00 | 0.00 | 0.00 | 64 | 1019.6 |
| 20260901085404 | 13 | 34 | 0.0 | 0.0 | 0.00 | 0.00 | 0.00 | 64 | 1019.6 |
| 20260901084904 | 13 | 34 | 0.0 | 0.0 | 0.00 | 0.00 | 0.00 | 63 | 1019.6 |
| 20260901084404 | 13 | 34 | 0.0 | 0.0 | 0.00 | 0.00 | 0.00 | 63 | 1019.5 |
| 20260901083904 | 13 | 34 | 0.0 | 0.0 | 0.00 | 0.00 | 0.00 | 63 | 1019.6 |
| 20260901083404 | 13 | 34 | 0.0 | 0.0 | 0.00 | 0.00 | 0.00 | 61 | 1019.6 |
| 20260901082404 | 13 | 34 | 0.0 | 0.0 | 0.00 | 0.00 | 0.00 | 61 | 1019.6 |
| 20260901081904 | 13 | 34 | 0.0 | 0.0 | 0.00 | 0.00 | 0.00 | 60 | 1019.8 |
| 20260901080905 | 13 | 34 | 0.0 | 0.0 | 0.00 | 0.00 | 0.00 | 59 | 1019.9 |
| 20260901080404 | 13 | 34 | 0.0 | 0.0 | 0.00 | 0.00 | 0.00 | 59 | 1019.9 |
| 20260901075904 | 13 | 32 | 0.0 | 0.0 | 0.00 | 0.00 | 0.00 | 60 | 1019.8 |
| 20260901075404 | 13 | 32 | 0.0 | 0.0 | 0.00 | 0.00 | 0.00 | 60 | 1019.8 |
| 20260901074405 | 13 | 32 | 0.0 | 0.0 | 0.00 | 0.00 | 0.00 | 60 | 1019.8 |
| 20260901073904 | 13 | 32 | 0.0 | 0.0 | 0.00 | 0.00 | 0.00 | 60 | 1019.9 |
| 20260901072904 | 13 | 32 | 0.0 | 0.0 | 0.00 | 0.00 | 0.00 | 61 | 1019.7 |
| 20260901071904 | 13 | 32 | 0.0 | 0.0 | 0.00 | 0.00 | 0.00 | 59 | 1019.7 |
| 20260901071404 | 13 | 32 | 0.0 | 0.0 | 0.00 | 0.00 | 0.00 | 59 | 1019.7 |
| 20260901070904 | 13 | 32 | 0.0 | 0.0 | 0.00 | 0.00 | 0.00 | 59 | 1019.6 |
| 20260901070404 | 13 | 32 | 0.0 | 0.0 | 0.00 | 0.00 | 0.00 | 60 | 1019.5 |
| 20260901065904 | 13 | 32 | 0.0 | 0.0 | 0.00 | 0.00 | 0.00 | 60 | 1019.6 |
| 20260901065404 | 13 | 32 | 0.0 | 0.0 | 0.00 | 0.00 | 0.00 | 59 | 1019.7 |
| 20260901064904 | 13 | 32 | 0.0 | 0.0 | 0.00 | 0.00 | 0.00 | 59 | 1019.7 |
| 20260901064404 | 13 | 32 | 0.0 | 0.0 | 0.00 | 0.00 | 0.00 | 59 | 1019.7 |
| 20260901063904 | 13 | 32 | 0.0 | 0.0 | 0.00 | 0.00 | 0.00 | 59 | 1019.7 |
| 20260901062904 | 13 | 32 | 0.0 | 0.0 | 0.00 | 0.00 | 0.00 | 58 | 1019.8 |
| 20260901062404 | 13 | 32 | 0.0 | 0.0 | 0.00 | 0.00 | 0.00 | 58 | 1019.7 |
| 20260901061904 | 13 | 32 | 0.0 | 0.0 | 0.00 | 0.00 | 0.00 | 59 | 1019.7 |
| 20260901061404 | 13 | 32 | 0.0 | 0.0 | 0.00 | 0.00 | 0.00 | 59 | 1019.7 |
| 20260901060904 | 13 | 32 | 0.0 | 0.0 | 0.00 | 0.00 | 0.00 | 58 | 1019.6 |
| 20260901060404 | 14 | 32 | 0.0 | 0.0 | 0.00 | 0.00 | 0.00 | 57 | 1019.6 |
| 20260901055404 | 14 | 32 | 0.0 | 0.0 | 0.00 | 0.00 | 0.00 | 56 | 1019.5 |
| 20260901054904 | 14 | 32 | 0.0 | 0.0 | 0.00 | 0.00 | 0.00 | 55 | 1019.5 |
| 20260901052904 | 14 | 32 | 0.0 | 0.0 | 0.00 | 0.00 | 0.00 | 56 | 1019.5 |
| 20260901052404 | 14 | 32 | 0.0 | 0.0 | 0.00 | 0.00 | 0.00 | 56 | 1019.4 |
| 20260901051404 | 15 | 32 | 0.0 | 0.0 | 0.00 | 0.00 | 0.00 | 55 | 1019.5 |
| 20260901050904 | 15 | 32 | 0.0 | 0.0 | 0.00 | 0.00 | 0.00 | 56 | 1019.5 |
| 20260901050404 | 15 | 32 | 0.0 | 0.0 | 0.00 | 0.00 | 0.00 | 56 | 1019.5 |
| 20260901045904 | 15 | 32 | 0.0 | 0.0 | 0.00 | 0.00 | 0.00 | 56 | 1019.5 |
| 20260901045404 | 15 | 32 | 0.0 | 0.0 | 0.00 | 0.00 | 0.00 | 54 | 1019.5 |
| 20260901044904 | 15 | 32 | 0.0 | 0.0 | 0.00 | 0.00 | 0.00 | 53 | 1019.5 |
| 20260901044404 | 15 | 32 | 0.0 | 0.0 | 0.00 | 0.00 | 0.00 | 50 | 1019.5 |
| 20260901043404 | 15 | 32 | 0.0 | 0.0 | 0.00 | 0.00 | 0.00 | 51 | 1019.4 |
| 20260901042904 | 15 | 32 | 0.0 | 0.0 | 0.00 | 0.00 | 0.00 | 51 | 1019.5 |
| 20260901042404 | 15 | 32 | 0.0 | 0.0 | 0.00 | 0.00 | 0.00 | 50 | 1019.5 |
| 20260901041904 | 15 | 32 | 0.0 | 0.0 | 0.00 | 0.00 | 0.00 | 49 | 1019.4 |
| 20260901041404 | 16 | 32 | 0.0 | 0.0 | 0.00 | 0.00 | 0.00 | 50 | 1019.4 |
| 20260901040905 | 16 | 32 | 0.0 | 0.0 | 0.00 | 0.00 | 0.00 | 49 | 1019.3 |
| 20260901040404 | 16 | 32 | 0.0 | 0.0 | 0.00 | 0.00 | 0.00 | 49 | 1019.3 |
| 20260901035904 | 16 | 32 | 0.0 | 0.0 | 0.00 | 0.00 | 0.00 | 49 | 1019.3 |
| 20260901035404 | 16 | 32 | 0.0 | 0.0 | 0.00 | 0.00 | 0.00 | 48 | 1019.2 |
| 20260901034904 | 16 | 32 | 0.0 | 0.0 | 0.00 | 0.00 | 0.00 | 49 | 1019.3 |
| 20260901033404 | 16 | 32 | 0.0 | 0.0 | 0.00 | 0.00 | 0.00 | 47 | 1019.2 |
| 20260901032904 | 16 | 32 | 0.0 | 0.0 | 0.00 | 0.00 | 0.00 | 47 | 1019.1 |
| 20260901032404 | 16 | 32 | 0.0 | 0.0 | 0.00 | 0.00 | 0.00 | 46 | 1019.1 |
| 20260901031904 | 16 | 32 | 0.0 | 0.0 | 0.00 | 0.00 | 0.00 | 45 | 1019.0 |
| 20260901030905 | 17 | 32 | 0.0 | 0.0 | 0.00 | 0.00 | 0.00 | 44 | 1018.9 |
| 20260901030404 | 17 | 32 | 0.0 | 0.0 | 0.00 | 0.00 | 0.00 | 45 | 1018.8 |
| 20260901025904 | 17 | 32 | 0.0 | 0.0 | 0.00 | 0.00 | 0.00 | 43 | 1018.8 |
| 20260901025404 | 17 | 32 | 0.0 | 0.0 | 0.00 | 0.00 | 0.00 | 44 | 1018.6 |
| 20260901024904 | 17 | 32 | 0.0 | 0.0 | 0.00 | 0.00 | 0.00 | 44 | 1018.6 |
| 20260901024404 | 17 | 32 | 0.0 | 0.0 | 0.00 | 0.00 | 0.00 | 42 | 1018.6 |
| 20260901023904 | 17 | 32 | 0.0 | 0.0 | 0.00 | 0.00 | 0.00 | 43 | 1018.6 |
| 20260901023406 | 18 | 32 | 0.0 | 0.0 | 0.00 | 0.00 | 0.00 | 42 | 1018.5 |
| 20260901022904 | 18 | 32 | 0.0 | 0.0 | 0.00 | 0.00 | 0.00 | 40 | 1018.5 |
| 20260901022404 | 19 | 32 | 0.0 | 0.0 | 0.00 | 0.00 | 0.00 | 40 | 1018.4 |
| 20260901021904 | 19 | 32 | 0.0 | 0.0 | 0.00 | 0.00 | 0.00 | 40 | 1018.4 |
| 20260901021404 | 20 | 32 | 0.0 | 0.0 | 0.00 | 0.00 | 0.00 | 37 | 1018.3 |
| 20260901020904 | 20 | 32 | 0.0 | 0.0 | 0.00 | 0.00 | 0.00 | 38 | 1018.2 |
| 20260901020404 | 20 | 32 | 0.0 | 0.0 | 0.00 | 0.00 | 0.00 | 37 | 1018.0 |
| 20260901015904 | 20 | 32 | 0.0 | 0.0 | 0.00 | 0.00 | 0.00 | 33 | 1018.1 |
| 20260901015404 | 20 | 32 | 0.0 | 0.0 | 0.00 | 0.00 | 0.00 | 32 | 1018.0 |
| 20260901014904 | 21 | 32 | 0.0 | 0.0 | 0.00 | 0.00 | 0.00 | 34 | 1018.1 |
| 20260901014404 | 21 | 32 | 0.0 | 0.0 | 0.00 | 0.00 | 0.00 | 33 | 1017.9 |
| 20260901013904 | 21 | 32 | 0.0 | 0.0 | 0.00 | 0.00 | 0.00 | 34 | 1017.9 |
| 20260901013404 | 21 | 32 | 0.0 | 0.0 | 0.00 | 0.00 | 0.00 | 33 | 1017.8 |
| 20260901012904 | 22 | 32 | 0.0 | 0.0 | 0.00 | 0.00 | 0.00 | 33 | 1017.9 |
| 20260901012404 | 22 | 32 | 0.0 | 1.6 | 0.00 | 0.00 | 0.00 | 33 | 1017.9 |
| 20260901011904 | 22 | 225 | 0.0 | 0.0 | 0.00 | 0.00 | 0.00 | 31 | 1018.0 |
| 20260901011404 | 22 | 225 | 0.0 | 0.0 | 0.00 | 0.00 | 0.00 | 30 | 1018.0 |
| 20260901010904 | 23 | 225 | 0.0 | 0.0 | 0.00 | 0.00 | 0.00 | 30 | 1017.9 |
| 20260901010404 | 23 | 225 | 0.0 | 0.0 | 0.00 | 0.00 | 0.00 | 29 | 1018.0 |
| 20260901005904 | 23 | 225 | 0.0 | 0.0 | 0.00 | 0.00 | 0.00 | 27 | 1018.0 |
| 20260901005404 | 24 | 225 | 0.0 | 0.0 | 0.00 | 0.00 | 0.00 | 27 | 1018.1 |
| 20260901004904 | 24 | 225 | 0.0 | 0.0 | 0.00 | 0.00 | 0.00 | 27 | 1018.1 |
| 20260901003905 | 25 | 225 | 0.0 | 0.0 | 0.00 | 0.00 | 0.00 | 25 | 1018.1 |
| 20260901003404 | 25 | 225 | 0.0 | 0.0 | 0.00 | 0.00 | 0.00 | 19 | 1018.0 |
| 20260901002904 | 25 | 225 | 0.0 | 0.0 | 0.00 | 0.00 | 0.00 | 20 | 1018.1 |
| 20260901002404 | 25 | 225 | 0.0 | 0.0 | 0.00 | 0.00 | 0.00 | 14 | 1018.1 |
| 20260901001904 | 25 | 225 | 0.0 | 0.0 | 0.00 | 0.00 | 0.00 | 15 | 1018.1 |
| 20260901001404 | 25 | 225 | 0.0 | 3.2 | 0.00 | 0.00 | 0.00 | 14 | 1018.0 |
| 20260901000904 | 26 | 226 | 1.6 | 4.8 | 0.00 | 0.00 | 0.00 | 13 | 1018.0 |
| 20260901000405 | 26 | 221 | 0.0 | 4.8 | 0.00 | 0.00 | 0.00 | 13 | 1018.1 |
| 20260831235904 | 26 | 231 | 0.0 | 4.8 | 0.00 | 0.00 | 0.00 | 13 | 1018.1 |
| 20260831235404 | 26 | 227 | 1.6 | 4.8 | 0.00 | 0.00 | 0.00 | 12 | 1018.1 |
| 20260831234904 | 26 | 233 | 1.6 | 4.8 | 0.00 | 0.00 | 0.00 | 12 | 1018.0 |
| 20260831233904 | 26 | 225 | 4.8 | 9.7 | 0.00 | 0.00 | 0.00 | 11 | 1018.0 |
| 20260831232904 | 27 | 223 | 1.6 | 8.0 | 0.00 | 0.00 | 0.00 | 12 | 1018.0 |
| 20260831232404 | 27 | 228 | 3.2 | 8.0 | 0.00 | 0.00 | 0.00 | 11 | 1018.1 |
| 20260831231904 | 27 | 214 | 1.6 | 12.9 | 0.00 | 0.00 | 0.00 | 13 | 1018.0 |
| 20260831231404 | 27 | 219 | 1.6 | 4.8 | 0.00 | 0.00 | 0.00 | 13 | 1018.0 |
| 20260831230904 | 27 | 231 | 4.8 | 4.8 | 0.00 | 0.00 | 0.00 | 12 | 1018.1 |
| 20260831230404 | 27 | 224 | 4.8 | 9.7 | 0.00 | 0.00 | 0.00 | 13 | 1018.1 |
| 20260831225904 | 26 | 228 | 6.4 | 11.3 | 0.00 | 0.00 | 0.00 | 12 | 1018.2 |